• In Czech Republic
  • List of Countries
  • For 7 days
  • Water Temperature
  • Satellite Maps
  • Weather Map
  • Weather Widgets
  • user-avatar
    Login

    Hourly Weather Bojsi

    Today, 23 February, Friday

    Time Temperature Precipitation Wind Pressure Humidity
    00:00 -9°C° 0 mm 3 mps 689 mmHg 74%
    01:00 -10°C° 0 mm 3 mps 690 mmHg 74%
    02:00 -10°C° 0 mm 3 mps 690 mmHg 74%
    03:00 -10°C° 0 mm 3 mps 690 mmHg 73%
    04:00 -12°C° 0 mm 3 mps 691 mmHg 73%
    05:00 -12°C° 0 mm 3 mps 691 mmHg 72%
    06:00 -12°C° 0 mm 3 mps 692 mmHg 71%
    07:00 -12°C° 0 mm 3 mps 692 mmHg 70%
    08:00 -10°C° 0 mm 3 mps 692 mmHg 66%
    09:00 -8°C° 0 mm 3 mps 692 mmHg 62%
    10:00 -6°C° 0 mm 3 mps 692 mmHg 58%
    11:00 -5°C° 0 mm 3 mps 692 mmHg 57%
    12:00 -4°C° 0 mm 3 mps 692 mmHg 55%
    13:00 -4°C° 0 mm 3 mps 691 mmHg 53%
    14:00 -4°C° 0 mm 3 mps 691 mmHg 53%
    15:00 -3°C° 0 mm 2 mps 691 mmHg 53%
    16:00 -3°C° 0 mm 2 mps 690 mmHg 53%
    17:00 -4°C° 0 mm 2 mps 691 mmHg 56%
    18:00 -5°C° 0 mm 2 mps 691 mmHg 60%
    19:00 -6°C° 0 mm 2 mps 691 mmHg 63%
    20:00 -6°C° 0 mm 2 mps 691 mmHg 64%
    21:00 -6°C° 0 mm 2 mps 691 mmHg 64%
    22:00 -6°C° 0 mm 2 mps 691 mmHg 64%
    23:00 -5°C° 0 mm 2 mps 690 mmHg 66%

    Tomorrow, 24 February, Saturday

    Time Temperature Precipitation Wind Pressure Humidity
    00:00 -5°C° 0 mm 2 mps 690 mmHg 68%
    01:00 -5°C° 0 mm 2 mps 689 mmHg 70%
    02:00 -5°C° 0.2 mm 2 mps 689 mmHg 74%
    03:00 -5°C° 0.2 mm 2 mps 689 mmHg 77%
    04:00 -4°C° 0.2 mm 2 mps 688 mmHg 80%
    05:00 -5°C° 0.5 mm 3 mps 687 mmHg 83%
    06:00 -5°C° 0.5 mm 3 mps 687 mmHg 85%
    07:00 -5°C° 0.5 mm 3 mps 686 mmHg 88%
    08:00 -4°C° 0.8 mm 4 mps 686 mmHg 85%
    09:00 -4°C° 0.8 mm 5 mps 685 mmHg 83%
    10:00 -2°C° 0.8 mm 5 mps 685 mmHg 80%
    11:00 -2°C° 0.9 mm 6 mps 685 mmHg 77%
    12:00 -1°C° 0.9 mm 6 mps 684 mmHg 74%
    13:00 -1°C° 0.9 mm 6 mps 684 mmHg 71%
    14:00 -1°C° 0.3 mm 6 mps 684 mmHg 70%
    15:00 -2°C° 0.3 mm 6 mps 684 mmHg 70%
    16:00 -2°C° 0.3 mm 6 mps 684 mmHg 69%
    17:00 -4°C° 0 mm 5 mps 685 mmHg 72%
    18:00 -5°C° 0 mm 4 mps 685 mmHg 74%
    19:00 -6°C° 0 mm 3 mps 686 mmHg 76%
    20:00 -7°C° 0 mm 3 mps 687 mmHg 77%
    21:00 -7°C° 0 mm 3 mps 687 mmHg 77%
    22:00 -7°C° 0 mm 2 mps 688 mmHg 78%
    23:00 -7°C° 0 mm 2 mps 688 mmHg 79%

    Day after tomorrow, 25 February, Sunday

    Time Temperature Precipitation Wind Pressure Humidity
    00:00 -7°C° 0 mm 2 mps 688 mmHg 80%
    01:00 -7°C° 0 mm 2 mps 689 mmHg 81%
    02:00 -7°C° 0 mm 2 mps 688 mmHg 82%
    03:00 -6°C° 0 mm 2 mps 688 mmHg 83%
    04:00 -6°C° 0 mm 2 mps 688 mmHg 84%
    05:00 -5°C° 0.2 mm 2 mps 688 mmHg 84%
    06:00 -4°C° 0.2 mm 2 mps 688 mmHg 85%
    07:00 -4°C° 0.2 mm 2 mps 688 mmHg 85%
    08:00 -2°C° 0.3 mm 3 mps 688 mmHg 82%
    09:00 -1°C° 0.3 mm 3 mps 687 mmHg 79%
    10:00 -1°C° 0.3 mm 4 mps 686 mmHg 76%
    11:00 0°C° 0.4 mm 4 mps 686 mmHg 74%
    12:00 0°C° 0.4 mm 4 mps 685 mmHg 73%
    13:00 +1°C° 0.4 mm 5 mps 684 mmHg 72%
    14:00 +1°C° 0.4 mm 5 mps 684 mmHg 72%
    15:00 +1°C° 0.4 mm 5 mps 683 mmHg 72%
    16:00 +1°C° 0.4 mm 6 mps 682 mmHg 72%
    17:00 +1°C° 0.8 mm 5 mps 682 mmHg 75%
    18:00 0°C° 0.8 mm 5 mps 682 mmHg 79%
    19:00 0°C° 0.8 mm 5 mps 682 mmHg 83%
    20:00 -1°C° 0.6 mm 4 mps 682 mmHg 85%
    21:00 0°C° 0.6 mm 3 mps 682 mmHg 87%
    22:00 +1°C° 0.6 mm 2 mps 682 mmHg 89%
    23:00 -1°C° 0.2 mm 2 mps 682 mmHg 89%

    26 February, Monday

    Time Temperature Precipitation Wind Pressure Humidity
    00:00 -2°C° 0.2 mm 2 mps 682 mmHg 88%
    01:00 0°C° 0.2 mm 1 mps 682 mmHg 88%
    02:00 -1°C° 0.1 mm 1 mps 683 mmHg 88%
    03:00 -1°C° 0.1 mm 1 mps 683 mmHg 88%
    04:00 -1°C° 0.1 mm 1 mps 683 mmHg 88%
    05:00 -2°C° 0 mm 1 mps 683 mmHg 87%
    06:00 -2°C° 0 mm 1 mps 684 mmHg 87%
    07:00 -2°C° 0 mm 1 mps 684 mmHg 86%
    08:00 -3°C° 0 mm 2 mps 684 mmHg 82%
    09:00 -2°C° 0 mm 2 mps 685 mmHg 77%
    10:00 -1°C° 0 mm 3 mps 685 mmHg 72%
    11:00 -1°C° 0 mm 3 mps 685 mmHg 68%
    12:00 0°C° 0 mm 3 mps 685 mmHg 64%
    13:00 -1°C° 0 mm 4 mps 685 mmHg 60%
    14:00 -1°C° 0 mm 4 mps 685 mmHg 61%
    15:00 -1°C° 0 mm 3 mps 685 mmHg 62%
    16:00 -1°C° 0 mm 3 mps 685 mmHg 63%
    17:00 -4°C° 0 mm 3 mps 686 mmHg 66%
    18:00 -4°C° 0 mm 2 mps 686 mmHg 69%
    19:00 -6°C° 0 mm 2 mps 687 mmHg 72%
    20:00 -7°C° 0 mm 2 mps 687 mmHg 73%
    21:00 -7°C° 0 mm 2 mps 687 mmHg 73%
    22:00 -8°C° 0 mm 2 mps 688 mmHg 74%
    23:00 -8°C° 0 mm 2 mps 688 mmHg 74%

    27 February, Tuesday

    Time Temperature Precipitation Wind Pressure Humidity
    00:00 -8°C° 0 mm 2 mps 688 mmHg 75%
    01:00 -8°C° 0 mm 2 mps 688 mmHg 75%
    02:00 -9°C° 0 mm 2 mps 688 mmHg 75%
    03:00 -9°C° 0 mm 2 mps 688 mmHg 75%
    04:00 -9°C° 0 mm 2 mps 688 mmHg 75%
    05:00 -9°C° 0 mm 2 mps 688 mmHg 74%
    06:00 -8°C° 0 mm 1 mps 688 mmHg 73%
    07:00 -8°C° 0 mm 1 mps 689 mmHg 72%
    08:00 -6°C° 0 mm 1 mps 688 mmHg 70%
    09:00 -3°C° 0 mm 1 mps 688 mmHg 67%
    10:00 -1°C° 0 mm 1 mps 688 mmHg 64%
    11:00 -1°C° 0 mm 1 mps 688 mmHg 62%
    12:00 -2°C° 0 mm 2 mps 687 mmHg 60%
    13:00 -1°C° 0 mm 2 mps 687 mmHg 57%
    14:00 -1°C° 0 mm 2 mps 687 mmHg 59%
    15:00 -1°C° 0 mm 2 mps 686 mmHg 61%
    16:00 -1°C° 0 mm 2 mps 686 mmHg 63%
    17:00 -2°C° 0 mm 2 mps 686 mmHg 66%
    18:00 -4°C° 0 mm 2 mps 686 mmHg 69%
    19:00 -5°C° 0 mm 2 mps 687 mmHg 72%
    20:00 -5°C° 0 mm 2 mps 687 mmHg 73%
    21:00 -5°C° 0 mm 2 mps 687 mmHg 74%
    22:00 -5°C° 0 mm 2 mps 687 mmHg 76%
    23:00 -5°C° 0 mm 2 mps 687 mmHg 76%

    28 February, Wednesday

    Time Temperature Precipitation Wind Pressure Humidity
    00:00 -5°C° 0 mm 2 mps 686 mmHg 76%
    01:00 -5°C° 0 mm 2 mps 686 mmHg 76%
    02:00 -4°C° 0.1 mm 2 mps 686 mmHg 78%
    03:00 -4°C° 0.1 mm 2 mps 686 mmHg 80%
    04:00 -5°C° 0.1 mm 3 mps 685 mmHg 82%
    05:00 -5°C° 0.4 mm 3 mps 685 mmHg 83%
    06:00 -5°C° 0.4 mm 3 mps 685 mmHg 85%
    07:00 -5°C° 0.4 mm 3 mps 684 mmHg 87%
    08:00 -4°C° 0.5 mm 4 mps 684 mmHg 87%
    09:00 -3°C° 0.5 mm 4 mps 683 mmHg 86%
    10:00 -3°C° 0.5 mm 4 mps 683 mmHg 86%
    11:00 -2°C° 0.7 mm 4 mps 683 mmHg 85%
    12:00 -2°C° 0.7 mm 4 mps 682 mmHg 84%
    13:00 -1°C° 0.7 mm 4 mps 682 mmHg 83%
    14:00 -1°C° 0.3 mm 4 mps 682 mmHg 83%
    15:00 -1°C° 0.3 mm 4 mps 683 mmHg 82%
    16:00 0°C° 0.3 mm 3 mps 683 mmHg 81%
    17:00 -1°C° 0.2 mm 3 mps 683 mmHg 81%
    18:00 -2°C° 0.2 mm 2 mps 684 mmHg 81%
    19:00 -3°C° 0.2 mm 2 mps 684 mmHg 81%
    20:00 -3°C° 0 mm 2 mps 684 mmHg 81%
    21:00 -4°C° 0 mm 2 mps 685 mmHg 82%
    22:00 -4°C° 0 mm 2 mps 685 mmHg 82%
    23:00 -4°C° 0.1 mm 2 mps 685 mmHg 83%
    Show more